This is the latest recevied weather packets stored in our database for station/object KE5BM-13. If no packets are shown the sender has not sent any weather packets the latest 10 day(s).
| Time | Temp. | Humidity | Pressure | Rain* | Wind** | Luminosity | Snow |
|---|---|---|---|---|---|---|---|
| 1778156541 | 8.33° C | 96% | 1007.2 hPa | 0.25 mm | - | - | - |
| 1778156240 | 8.89° C | 96% | 1007.2 hPa | 0.25 mm | - | - | - |
| 1778155940 | 8.89° C | 96% | 1007.1 hPa | 0.25 mm | - | - | - |
| 1778155642 | 8.89° C | 96% | 1007.1 hPa | 0.51 mm | - | - | - |
| 1778155344 | 8.89° C | 96% | 1006.9 hPa | 0.76 mm | - | - | - |
| 1778155041 | 9.44° C | 96% | 1006.9 hPa | 1.02 mm | - | - | - |
| 1778154740 | 9.44° C | 96% | 1007.2 hPa | 0.76 mm | - | - | - |
| 1778154440 | 9.44° C | 96% | 1007.4 hPa | 0.76 mm | - | - | - |
| 1778154140 | 8.89° C | 96% | 1007.6 hPa | 0.76 mm | - | - | - |
| 1778153838 | 8.89° C | 96% | 1007.3 hPa | 0.76 mm | - | - | - |
| 1778153540 | 8.89° C | 96% | 1007 hPa | 0.76 mm | - | - | - |
| 1778153238 | 8.89° C | 96% | 1006.5 hPa | 0.76 mm | - | - | - |
| 1778152937 | 9.44° C | 96% | 1006.6 hPa | 0.76 mm | - | - | - |
| 1778152638 | 9.44° C | 96% | 1006.5 hPa | 0.76 mm | - | - | - |
| 1778152335 | 9.44° C | 96% | 1006.5 hPa | 1.02 mm | - | - | - |
| 1778152034 | 9.44° C | 96% | 1006.4 hPa | 1.02 mm | - | - | - |
| 1778151736 | 9.44° C | 97% | 1006.4 hPa | 0.76 mm | - | - | - |
| 1778151431 | 9.44° C | 97% | 1006.8 hPa | 0.76 mm | - | - | - |
| 1778151131 | 9.44° C | 97% | 1006.6 hPa | 1.02 mm | - | - | - |
| 1778150820 | 9.44° C | 97% | 1006.3 hPa | 1.52 mm | - | - | - |
| 1778150519 | 9.44° C | 97% | 1006.3 hPa | 3.56 mm | - | - | - |
| 1778150220 | 9.44° C | 97% | 1006.3 hPa | 3.81 mm | - | - | - |
| 1778149918 | 9.44° C | 97% | 1006.1 hPa | 4.06 mm | - | - | - |
| 1778149617 | 9.44° C | 97% | 1006 hPa | 4.32 mm | - | - | - |
| 1778149317 | 9.44° C | 97% | 1006.1 hPa | 4.57 mm | - | - | - |
* Rain latest hour (hover to see other rain measurements)
** Current wind speed in m/s (hover to see current wind gust speed)